Albany, NY

2:20 PM EDT on March 28, 2017 (GMT -0400)
Albany International

Weather History for KALB - January, 2014

Change the Weather History Date:

Tuesday, January 28, 2014

  Actual Average Record
Temperature  
Mean Temperature 10 °F 23 °F  
Max Temperature 16 °F 31 °F 56 °F (1916)
Min Temperature 3 °F 15 °F -16 °F (2005)
Degree Days  
Heating Degree Days 55 42  
Month to date heating degree days 1250 1192  
Since 1 July heating degree days 3774 3727  
Cooling Degree Days 0 0  
Month to date cooling degree days 0 0  
Year to date cooling degree days 0 0  
Moisture  
Dew Point -9 °F    
Average Humidity 49    
Maximum Humidity 63    
Minimum Humidity 35    
Precipitation  
Precipitation 0.00 in 0.09 in 1.00 in (2009)
Month to date precipitation 2.31 2.35  
Year to date precipitation 2.31 2.35  
Snow  
Snow 0.00 in 0.50 in 9.60 in (1897)
Month to date snowfall 15.0 16.3  
Since 1 July snowfall 37.1 33.1  
Snow Depth 1.00 in    
Sea Level Pressure  
Sea Level Pressure 30.26 in    
Wind  
Wind Speed 7 mph (West)    
Max Wind Speed 21 mph    
Max Gust Speed 26 mph    
Visibility 10 miles    
Events      
T = Trace of Precipitation, MM = Missing Value Source: NWS Daily Summary

Daily Weather History Graph

Daily Weather History Graph

Search for Another Location

Airport or City:

Trip Planner

Search our weather history database for the weather conditions in past years. The results will help you decide how hot, cold, wet, or windy it might be!

Date:

Astronomy

Jan. 28, 2014 Rise Set
Actual Time 7:13 AM EST 5:03 PM EST
Civil Twilight 6:43 AM EST 5:33 PM EST
Nautical Twilight 6:09 AM EST 6:07 PM EST
Astronomical Twilight 5:35 AM EST 6:40 PM EST
Moon 4:53 AM EST 2:49 PM EST
Length of Visible Light 10h 50m
Length of Day
9h 49m
Waning Crescent, 7% of the Moon is Illuminated
Jan 28
Waning Crescent
Jan 30
New
Feb 6
First Quarter
Feb 14
Full
Feb 22
Last Quarter

Hourly Weather History & Observations

Time (EST) Temp. Windchill Dew Point Humidity Pressure Visibility Wind Dir Wind Speed Gust Speed Precip Events Conditions
12:51 AM 10.0 °F -5.9 °F -8.0 °F 44% 30.11 in 10.0 mi West 13.8 mph - N/A   Partly Cloudy
1:51 AM 10.0 °F -2.9 °F -9.9 °F 40% 30.13 in 10.0 mi WSW 9.2 mph - N/A   Clear
2:51 AM 9.0 °F -3.2 °F -11.0 °F 40% 30.16 in 10.0 mi WSW 8.1 mph - N/A   Clear
3:51 AM 8.1 °F -5.3 °F -11.0 °F 42% 30.19 in 10.0 mi WSW 9.2 mph - N/A   Clear
4:51 AM 8.1 °F -5.3 °F -14.1 °F 36% 30.21 in 10.0 mi West 9.2 mph - N/A   Clear
5:51 AM 7.0 °F -5.7 °F -16.1 °F 34% 30.24 in 10.0 mi West 8.1 mph - N/A   Clear
6:51 AM 5.0 °F -9.1 °F -15.0 °F 39% 30.28 in 10.0 mi West 9.2 mph - N/A   Partly Cloudy
7:51 AM 5.0 °F -2.1 °F -15.0 °F 39% 30.31 in 10.0 mi SSW 3.5 mph - N/A   Partly Cloudy
8:51 AM 7.0 °F -8.3 °F -11.9 °F 42% 30.32 in 10.0 mi WNW 11.5 mph - N/A   Partly Cloudy
9:51 AM 10.0 °F -5.9 °F -9.9 °F 40% 30.34 in 10.0 mi WNW 13.8 mph 18.4 mph N/A   Partly Cloudy
10:51 AM 10.9 °F -2.6 °F -9.9 °F 39% 30.35 in 10.0 mi WNW 10.4 mph - N/A   Scattered Clouds
11:51 AM 12.0 °F -1.3 °F -9.0 °F 39% 30.35 in 10.0 mi NW 10.4 mph - N/A   Mostly Cloudy
12:51 PM 14.0 °F 1.2 °F -8.0 °F 37% 30.31 in 10.0 mi WSW 10.4 mph - N/A   Mostly Cloudy
1:51 PM 15.1 °F 3.3 °F -8.0 °F 36% 30.29 in 10.0 mi WNW 9.2 mph - N/A   Mostly Cloudy
2:51 PM 15.1 °F 4.2 °F -8.0 °F 36% 30.28 in 10.0 mi WNW 8.1 mph - N/A   Overcast
3:51 PM 15.1 °F 6.4 °F -8.0 °F 36% 30.29 in 10.0 mi West 5.8 mph - N/A   Overcast
4:51 PM 14.0 °F 8.2 °F -9.0 °F 35% 30.30 in 10.0 mi West 3.5 mph - N/A   Mostly Cloudy
5:51 PM 12.9 °F - -8.0 °F 39% 30.30 in 10.0 mi Calm Calm - N/A   Mostly Cloudy
6:51 PM 12.9 °F 3.8 °F -6.0 °F 43% 30.30 in 10.0 mi South 5.8 mph - N/A   Mostly Cloudy
7:51 PM 12.9 °F 5.2 °F -5.1 °F 45% 30.29 in 10.0 mi South 4.6 mph - N/A   Mostly Cloudy
8:51 PM 12.9 °F - -5.1 °F 45% 30.28 in 10.0 mi Calm Calm - N/A   Overcast
9:51 PM 10.0 °F - -2.0 °F 58% 30.27 in 10.0 mi Calm Calm - N/A   Overcast
10:51 PM 9.0 °F - -2.0 °F 61% 30.25 in 10.0 mi Calm Calm - N/A   Mostly Cloudy
11:51 PM 8.1 °F - -0.9 °F 67% 30.24 in 10.0 mi Calm Calm - N/A   Mostly Cloudy